QPF
0.00 0.00 0.00 0.00 0.00 0.00 0.01 0.01 0.01 0.02 0.01 0.01 0.00 0.01 0.01 0.03 0.06 0.12 0.14 0.11 0.10 0.09 0.08 0.05 0.06 0.04 0.03 0.03 0.03 0.04 0.05 0.05 0.04 0.03 0.03 0.03 0.04 0.03 0.05 0.07 0.08 0.07 0.08 0.07 0.07 0.06 0.04 0.04 0.04
0.00 0.00 0.00 0.00 0.00 0.00 0.01 0.00 0.01 0.01 0.01 0.01 0.00 0.00 0.01 0.02 0.03 0.05 0.06 0.06 0.05 0.05 0.05 0.03 0.05 0.05 0.03 0.03 0.03 0.02 0.04 0.05 0.03 0.03 0.03 0.03 0.04 0.04 0.04 0.06 0.06 0.04 0.04 0.04 0.06 0.05 0.03 0.03 0.03
0.00 0.00 0.00 0.00 0.00 0.00 0.00 0.00 0.00 0.01 0.00 0.01 0.01 0.01 0.01 0.01 0.02 0.04 0.04 0.03 0.03 0.04 0.04 0.04 0.05 0.04 0.03 0.02 0.03 0.02 0.03 0.04 0.03 0.02 0.03 0.04 0.05 0.04 0.04 0.04 0.04 0.03 0.02 0.03 0.06 0.04 0.03 0.03 0.03
0.00 0.00 0.00 0.00 0.00 0.00 0.00 0.00 0.00 0.01 0.01 0.01 0.02 0.02 0.02 0.03 0.03 0.03 0.03 0.02 0.02 0.04 0.05 0.05 0.04 0.03 0.02 0.02 0.02 0.02 0.02 0.03 0.03 0.03 0.03 0.03 0.05 0.05 0.04 0.03 0.03 0.02 0.03 0.04 0.04 0.04 0.02 0.02 0.03
0.00 0.00 0.00 0.00 0.00 0.00 0.00 0.00 0.00 0.01 0.02 0.01 0.02 0.02 0.03 0.03 0.02 0.02 0.02 0.02 0.03 0.05 0.05 0.06 0.04 0.03 0.02 0.02 0.01 0.01 0.02 0.02 0.02 0.03 0.03 0.04 0.05 0.05 0.04 0.02 0.02 0.02 0.03 0.04 0.04 0.03 0.03 0.03 0.04
0.00 0.00 0.00 0.00 0.00 0.00 0.01 0.01 0.00 0.01 0.01 0.01 0.01 0.02 0.03 0.03 0.02 0.02 0.01 0.02 0.03 0.03 0.04 0.06 0.05 0.04 0.03 0.02 0.02 0.01 0.02 0.02 0.03 0.03 0.03 0.03 0.04 0.04 0.03 0.02 0.02 0.02 0.02 0.04 0.05 0.04 0.03 0.04 0.05
0.00 0.00 0.00 0.00 0.01 0.00 0.02 0.02 0.01 0.01 0.02 0.01 0.01 0.02 0.03 0.03 0.03 0.02 0.02 0.03 0.03 0.03 0.02 0.03 0.03 0.03 0.02 0.03 0.03 0.02 0.03 0.03 0.03 0.03 0.03 0.03 0.04 0.04 0.03 0.03 0.03 0.03 0.03 0.03 0.04 0.04 0.05 0.05 0.05
0.00 0.00 0.00 0.00 0.01 0.01 0.02 0.02 0.01 0.02 0.03 0.01 0.01 0.02 0.02 0.02 0.02 0.02 0.02 0.03 0.04 0.03 0.03 0.03 0.03 0.03 0.02 0.02 0.03 0.03 0.04 0.03 0.04 0.04 0.05 0.04 0.04 0.04 0.03 0.03 0.04 0.04 0.03 0.03 0.03 0.04 0.04 0.04 0.05
0.00 0.00 0.00 0.00 0.00 0.01 0.01 0.01 0.01 0.02 0.03 0.01 0.01 0.01 0.02 0.01 0.01 0.01 0.01 0.01 0.02 0.02 0.03 0.03 0.02 0.02 0.02 0.02 0.02 0.04 0.07 0.08 0.08 0.08 0.07 0.07 0.06 0.04 0.04 0.03 0.04 0.04 0.03 0.04 0.04 0.04 0.04 0.05 0.05
0.00 0.00 0.00 0.00 0.00 0.00 0.00 0.00 0.01 0.01 0.01 0.02 0.02 0.03 0.02 0.00 0.01 0.01 0.00 0.01 0.01 0.01 0.03 0.02 0.01 0.01 0.02 0.01 0.03 0.06 0.07 0.08 0.09 0.09 0.08 0.07 0.04 0.04 0.03 0.03 0.04 0.04 0.03 0.04 0.05 0.03 0.03 0.04 0.06
0.00 0.00 0.00 0.00 0.00 0.00 0.00 0.00 0.00 0.00 0.01 0.01 0.01 0.02 0.01 0.00 0.01 0.01 0.00 0.01 0.00 0.01 0.01 0.01 0.01 0.02 0.02 0.02 0.02 0.04 0.06 0.05 0.04 0.04 0.04 0.04 0.02 0.02 0.02 0.03 0.03 0.03 0.03 0.03 0.03 0.03 0.03 0.04 0.07
0.00 0.00 0.00 0.00 0.00 0.00 0.00 0.00 0.00 0.00 0.00 0.00 0.00 0.00 0.01 0.00 0.01 0.01 0.00 0.01 0.01 0.00 0.01 0.01 0.01 0.01 0.01 0.01 0.02 0.02 0.02 0.02 0.02 0.02 0.02 0.02 0.02 0.02 0.02 0.04 0.04 0.03 0.03 0.03 0.03 0.05 0.04 0.04 0.05
0.00 0.00 0.00 0.00 0.00 0.00 0.00 0.00 0.00 0.00 0.00 0.00 0.00 0.01 0.00 0.00 0.01 0.01 0.00 0.00 0.00 0.00 0.01 0.01 0.01 0.01 0.01 0.01 0.01 0.01 0.01 0.01 0.01 0.02 0.02 0.02 0.02 0.02 0.03 0.05 0.05 0.02 0.02 0.03 0.04 0.05 0.05 0.06 0.06
0.00 0.00 0.00 0.00 0.00 0.00 0.00 0.01 0.00 0.00 0.00 0.00 0.00 0.02 0.01 0.01 0.01 0.01 0.01 0.00 0.00 0.00 0.01 0.01 0.01 0.01 0.01 0.01 0.01 0.01 0.01 0.01 0.02 0.02 0.02 0.03 0.03 0.03 0.07 0.16 0.12 0.05 0.03 0.02 0.04 0.06 0.07 0.08 0.09
0.00 0.00 0.00 0.00 0.00 0.00 0.00 0.00 0.00 0.00 0.00 0.00 0.01 0.01 0.01 0.01 0.02 0.01 0.01 0.01 0.01 0.01 0.01 0.01 0.02 0.03 0.02 0.01 0.01 0.00 0.00 0.01 0.02 0.02 0.01 0.03 0.04 0.04 0.06 0.18 0.17 0.08 0.04 0.04 0.04 0.06 0.08 0.08 0.08
0.00 0.00 0.00 0.00 0.00 0.00 0.00 0.00 0.00 0.00 0.00 0.01 0.00 0.01 0.00 0.01 0.01 0.01 0.01 0.01 0.01 0.01 0.01 0.01 0.01 0.02 0.02 0.02 0.02 0.01 0.01 0.01 0.01 0.02 0.02 0.03 0.04 0.04 0.05 0.07 0.09 0.06 0.04 0.04 0.05 0.07 0.08 0.11 0.11
0.00 0.00 0.00 0.00 0.00 0.00 0.00 0.00 0.01 0.00 0.00 0.00 0.00 0.00 0.00 0.01 0.01 0.00 0.00 0.01 0.01 0.01 0.02 0.02 0.01 0.01 0.02 0.03 0.03 0.02 0.03 0.03 0.02 0.02 0.03 0.04 0.04 0.05 0.06 0.07 0.10 0.08 0.06 0.06 0.05 0.07 0.09 0.10 0.12
0.00 0.00 0.00 0.00 0.00 0.00 0.00 0.00 0.00 0.01 0.01 0.00 0.00 0.00 0.00 0.00 0.00 0.00 0.00 0.01 0.01 0.02 0.02 0.03 0.03 0.02 0.02 0.02 0.02 0.02 0.03 0.03 0.03 0.04 0.06 0.05 0.06 0.06 0.07 0.06 0.09 0.11 0.10 0.10 0.08 0.10 0.09 0.09 0.10
0.00 0.00 0.00 0.00 0.00 0.00 0.00 0.00 0.00 0.01 0.00 0.00 0.00 0.00 0.00 0.00 0.00 0.00 0.00 0.00 0.00 0.01 0.02 0.02 0.04 0.04 0.03 0.03 0.02 0.02 0.03 0.04 0.04 0.04 0.04 0.05 0.05 0.08 0.09 0.07 0.09 0.10 0.13 0.14 0.11 0.10 0.09 0.09 0.09
0.00 0.00 0.00 0.00 0.00 0.00 0.00 0.00 0.00 0.00 0.00 0.00 0.01 0.00 0.00 0.00 0.00 0.00 0.00 0.00 0.01 0.01 0.02 0.03 0.05 0.05 0.04 0.03 0.04 0.05 0.06 0.05 0.05 0.06 0.07 0.06 0.06 0.08 0.07 0.10 0.09 0.10 0.13 0.16 0.12 0.11 0.10 0.10 0.09
0.00 0.00 0.00 0.00 0.00 0.00 0.00 0.00 0.00 0.00 0.00 0.00 0.00 0.00 0.00 0.00 0.00 0.00 0.00 0.00 0.00 0.01 0.01 0.03 0.05 0.06 0.04 0.04 0.05 0.06 0.07 0.07 0.06 0.06 0.08 0.07 0.06 0.06 0.06 0.08 0.10 0.13 0.11 0.13 0.16 0.14 0.14 0.15 0.12
0.00 0.00 0.00 0.00 0.00 0.00 0.00 0.00 0.00 0.00 0.00 0.00 0.00 0.00 0.00 0.00 0.00 0.00 0.00 0.00 0.00 0.02 0.03 0.02 0.03 0.06 0.05 0.05 0.05 0.08 0.09 0.11 0.11 0.09 0.06 0.07 0.06 0.05 0.07 0.08 0.10 0.12 0.11 0.13 0.14 0.14 0.15 0.18 0.15
0.00 0.00 0.00 0.00 0.00 0.00 0.00 0.00 0.00 0.00 0.00 0.00 0.00 0.00 0.00 0.00 0.00 0.00 0.00 0.00 0.00 0.02 0.03 0.02 0.03 0.04 0.07 0.06 0.05 0.09 0.10 0.12 0.12 0.09 0.07 0.06 0.05 0.05 0.05 0.06 0.07 0.09 0.09 0.09 0.10 0.12 0.12 0.13 0.13
0.00 0.00 0.00 0.00 0.00 0.01 0.00 0.00 0.00 0.00 0.00 0.00 0.00 0.00 0.00 0.00 0.00 0.00 0.00 0.00 0.00 0.01 0.02 0.02 0.03 0.04 0.05 0.05 0.05 0.07 0.09 0.11 0.10 0.10 0.08 0.05 0.05 0.05 0.04 0.06 0.07 0.07 0.07 0.08 0.09 0.09 0.08 0.09 0.10
0.00 0.00 0.01 0.00 0.01 0.00 0.00 0.00 0.00 0.00 0.00 0.00 0.00 0.00 0.00 0.00 0.00 0.00 0.00 0.00 0.00 0.02 0.04 0.04 0.04 0.04 0.03 0.05 0.05 0.06 0.07 0.09 0.09 0.09 0.09 0.05 0.04 0.04 0.05 0.05 0.07 0.07 0.08 0.08 0.10 0.08 0.06 0.07 0.08
0.00 0.00 0.01 0.01 0.01 0.00 0.00 0.00 0.00 0.00 0.00 0.00 0.00 0.00 0.00 0.00 0.00 0.00 0.00 0.00 0.01 0.02 0.05 0.04 0.05 0.05 0.04 0.05 0.05 0.06 0.07 0.09 0.09 0.09 0.07 0.05 0.04 0.05 0.07 0.05 0.05 0.05 0.06 0.05 0.07 0.05 0.04 0.05 0.05
0.00 0.00 0.00 0.01 0.01 0.01 0.00 0.00 0.00 0.00 0.00 0.00 0.00 0.00 0.00 0.00 0.00 0.00 0.00 0.01 0.01 0.03 0.04 0.04 0.07 0.06 0.06 0.06 0.06 0.07 0.08 0.09 0.08 0.09 0.07 0.04 0.04 0.04 0.05 0.05 0.05 0.04 0.04 0.05 0.06 0.04 0.03 0.03 0.04
0.00 0.00 0.01 0.01 0.01 0.01 0.01 0.00 0.00 0.00 0.00 0.00 0.00 0.00 0.00 0.00 0.00 0.00 0.00 0.01 0.01 0.03 0.03 0.05 0.06 0.05 0.06 0.06 0.06 0.07 0.08 0.08 0.08 0.09 0.07 0.08 0.07 0.04 0.05 0.05 0.04 0.03 0.03 0.04 0.06 0.05 0.04 0.05 0.05
0.00 0.00 0.00 0.01 0.00 0.00 0.01 0.00 0.00 0.00 0.00 0.00 0.00 0.00 0.00 0.00 0.00 0.00 0.00 0.01 0.00 0.01 0.03 0.04 0.04 0.05 0.05 0.04 0.05 0.06 0.07 0.09 0.10 0.08 0.06 0.06 0.07 0.06 0.05 0.06 0.07 0.07 0.06 0.06 0.07 0.06 0.05 0.06 0.05
0.00 0.00 0.00 0.01 0.01 0.00 0.00 0.00 0.00 0.00 0.00 0.00 0.00 0.00 0.00 0.00 0.00 0.00 0.00 0.01 0.01 0.01 0.01 0.01 0.02 0.03 0.03 0.04 0.04 0.07 0.07 0.07 0.08 0.06 0.04 0.04 0.04 0.04 0.04 0.05 0.05 0.05 0.07 0.08 0.08 0.09 0.08 0.07 0.05
MSLP
1005.27 1005.66 1006.35 1007.23 1008.19 1009.09 1009.84 1010.38 1010.71 1010.86 1010.91 1010.94 1011.01 1011.14 1011.33 1011.54 1011.73 1011.86 1011.91 1011.91 1011.90 1011.94 1012.06 1012.29 1012.61 1012.98 1013.32 1013.59 1013.73 1013.74 1013.65 1013.50 1013.38 1013.35 1013.43 1013.61 1013.88 1014.18 1014.44 1014.63 1014.75 1014.80 1014.82 1014.88 1014.99 1015.18 1015.42 1015.69 1015.93
1005.33 1005.91 1006.76 1007.77 1008.78 1009.68 1010.37 1010.79 1010.97 1010.96 1010.88 1010.80 1010.81 1010.92 1011.12 1011.37 1011.61 1011.80 1011.91 1011.98 1012.03 1012.13 1012.31 1012.59 1012.96 1013.37 1013.75 1014.04 1014.20 1014.22 1014.14 1014.01 1013.91 1013.88 1013.95 1014.13 1014.36 1014.60 1014.80 1014.93 1014.98 1014.99 1015.00 1015.06 1015.19 1015.42 1015.70 1015.99 1016.24
1005.54 1006.28 1007.26 1008.34 1009.37 1010.23 1010.81 1011.11 1011.14 1011.01 1010.81 1010.67 1010.64 1010.75 1010.98 1011.27 1011.56 1011.79 1011.95 1012.05 1012.13 1012.26 1012.47 1012.79 1013.20 1013.65 1014.07 1014.40 1014.59 1014.65 1014.60 1014.50 1014.41 1014.39 1014.45 1014.60 1014.79 1014.97 1015.11 1015.18 1015.19 1015.18 1015.19 1015.27 1015.44 1015.70 1016.02 1016.33 1016.58
1005.89 1006.74 1007.79 1008.89 1009.89 1010.67 1011.14 1011.32 1011.23 1011.00 1010.75 1010.58 1010.55 1010.69 1010.96 1011.29 1011.61 1011.87 1012.03 1012.13 1012.21 1012.34 1012.56 1012.89 1013.33 1013.81 1014.27 1014.64 1014.89 1014.99 1014.98 1014.91 1014.84 1014.82 1014.87 1014.99 1015.14 1015.29 1015.38 1015.42 1015.41 1015.40 1015.43 1015.54 1015.75 1016.05 1016.39 1016.70 1016.94
1006.36 1007.26 1008.31 1009.37 1010.29 1010.95 1011.32 1011.38 1011.22 1010.95 1010.69 1010.54 1010.57 1010.76 1011.08 1011.45 1011.79 1012.04 1012.18 1012.25 1012.30 1012.40 1012.60 1012.92 1013.37 1013.87 1014.36 1014.77 1015.05 1015.20 1015.23 1015.19 1015.14 1015.14 1015.19 1015.29 1015.42 1015.54 1015.62 1015.66 1015.66 1015.67 1015.74 1015.89 1016.13 1016.44 1016.78 1017.09 1017.29
1006.89 1007.78 1008.77 1009.72 1010.52 1011.06 1011.31 1011.30 1011.11 1010.84 1010.63 1010.56 1010.67 1010.95 1011.33 1011.73 1012.07 1012.30 1012.40 1012.42 1012.41 1012.45 1012.61 1012.92 1013.35 1013.85 1014.36 1014.79 1015.10 1015.28 1015.34 1015.33 1015.30 1015.31 1015.37 1015.47 1015.61 1015.73 1015.83 1015.89 1015.92 1015.98 1016.08 1016.26 1016.52 1016.84 1017.16 1017.42 1017.58
1007.42 1008.24 1009.11 1009.92 1010.56 1010.97 1011.13 1011.07 1010.89 1010.68 1010.57 1010.61 1010.83 1011.20 1011.65 1012.09 1012.43 1012.63 1012.68 1012.63 1012.56 1012.55 1012.66 1012.92 1013.33 1013.81 1014.31 1014.74 1015.06 1015.25 1015.33 1015.33 1015.32 1015.35 1015.42 1015.54 1015.70 1015.85 1015.98 1016.08 1016.16 1016.26 1016.40 1016.60 1016.86 1017.15 1017.44 1017.65 1017.76
1007.91 1008.60 1009.32 1009.95 1010.44 1010.72 1010.80 1010.72 1010.58 1010.47 1010.48 1010.66 1011.01 1011.48 1012.00 1012.47 1012.81 1012.97 1012.98 1012.88 1012.76 1012.70 1012.76 1012.98 1013.35 1013.80 1014.27 1014.68 1014.98 1015.16 1015.23 1015.24 1015.24 1015.28 1015.38 1015.53 1015.71 1015.90 1016.08 1016.22 1016.35 1016.48 1016.63 1016.84 1017.08 1017.34 1017.57 1017.74 1017.80
1008.31 1008.86 1009.40 1009.86 1010.18 1010.35 1010.37 1010.31 1010.23 1010.23 1010.37 1010.68 1011.15 1011.72 1012.30 1012.79 1013.13 1013.28 1013.26 1013.14 1012.99 1012.90 1012.93 1013.12 1013.45 1013.86 1014.27 1014.64 1014.90 1015.05 1015.10 1015.11 1015.11 1015.17 1015.28 1015.46 1015.68 1015.91 1016.12 1016.30 1016.45 1016.60 1016.76 1016.94 1017.16 1017.37 1017.56 1017.67 1017.69
1008.61 1009.01 1009.39 1009.68 1009.87 1009.94 1009.93 1009.88 1009.88 1009.98 1010.24 1010.67 1011.24 1011.88 1012.50 1013.01 1013.36 1013.51 1013.49 1013.37 1013.22 1013.14 1013.17 1013.34 1013.63 1013.99 1014.35 1014.65 1014.85 1014.96 1014.99 1014.98 1014.99 1015.05 1015.19 1015.40 1015.64 1015.90 1016.13 1016.32 1016.48 1016.62 1016.76 1016.92 1017.09 1017.27 1017.41 1017.49 1017.49
1008.83 1009.10 1009.32 1009.48 1009.56 1009.56 1009.53 1009.52 1009.58 1009.77 1010.12 1010.63 1011.25 1011.93 1012.56 1013.09 1013.44 1013.61 1013.62 1013.53 1013.43 1013.38 1013.43 1013.60 1013.87 1014.18 1014.48 1014.72 1014.86 1014.92 1014.91 1014.89 1014.90 1014.98 1015.14 1015.36 1015.62 1015.88 1016.11 1016.30 1016.44 1016.56 1016.67 1016.80 1016.93 1017.07 1017.19 1017.26 1017.26
1009.00 1009.16 1009.27 1009.32 1009.33 1009.29 1009.26 1009.27 1009.37 1009.62 1010.02 1010.55 1011.19 1011.86 1012.48 1013.00 1013.36 1013.56 1013.62 1013.60 1013.57 1013.58 1013.68 1013.87 1014.13 1014.40 1014.65 1014.82 1014.91 1014.92 1014.89 1014.86 1014.87 1014.96 1015.13 1015.36 1015.63 1015.88 1016.10 1016.26 1016.37 1016.46 1016.53 1016.62 1016.73 1016.85 1016.96 1017.03 1017.06
1009.17 1009.25 1009.28 1009.27 1009.23 1009.18 1009.15 1009.18 1009.31 1009.57 1009.96 1010.48 1011.08 1011.70 1012.28 1012.77 1013.13 1013.36 1013.48 1013.55 1013.61 1013.71 1013.87 1014.09 1014.35 1014.61 1014.81 1014.94 1014.98 1014.96 1014.91 1014.87 1014.89 1014.99 1015.17 1015.40 1015.66 1015.89 1016.08 1016.21 1016.29 1016.33 1016.38 1016.45 1016.55 1016.66 1016.78 1016.88 1016.93
1009.37 1009.41 1009.40 1009.36 1009.31 1009.25 1009.23 1009.27 1009.39 1009.63 1009.98 1010.43 1010.94 1011.47 1011.98 1012.42 1012.77 1013.03 1013.22 1013.37 1013.53 1013.72 1013.96 1014.23 1014.51 1014.75 1014.93 1015.03 1015.04 1015.00 1014.94 1014.91 1014.94 1015.05 1015.23 1015.45 1015.69 1015.90 1016.05 1016.15 1016.19 1016.22 1016.25 1016.31 1016.41 1016.54 1016.69 1016.81 1016.89
1009.65 1009.66 1009.64 1009.60 1009.55 1009.51 1009.49 1009.52 1009.62 1009.80 1010.07 1010.41 1010.80 1011.22 1011.63 1012.00 1012.33 1012.60 1012.84 1013.08 1013.33 1013.62 1013.93 1014.26 1014.56 1014.82 1014.99 1015.07 1015.08 1015.03 1014.98 1014.95 1014.99 1015.10 1015.27 1015.48 1015.69 1015.87 1015.99 1016.06 1016.09 1016.10 1016.13 1016.21 1016.33 1016.49 1016.67 1016.82 1016.92
1009.99 1010.00 1009.99 1009.97 1009.94 1009.91 1009.90 1009.91 1009.96 1010.06 1010.22 1010.43 1010.69 1010.97 1011.26 1011.56 1011.84 1012.11 1012.40 1012.70 1013.03 1013.40 1013.78 1014.17 1014.51 1014.79 1014.98 1015.08 1015.09 1015.05 1015.00 1014.98 1015.01 1015.11 1015.26 1015.44 1015.62 1015.77 1015.87 1015.92 1015.95 1015.98 1016.03 1016.14 1016.30 1016.50 1016.70 1016.87 1016.98
1010.37 1010.40 1010.42 1010.42 1010.42 1010.41 1010.40 1010.39 1010.38 1010.39 1010.42 1010.50 1010.61 1010.75 1010.92 1011.12 1011.35 1011.60 1011.90 1012.25 1012.64 1013.08 1013.53 1013.98 1014.37 1014.70 1014.92 1015.04 1015.08 1015.06 1015.02 1014.99 1015.01 1015.07 1015.19 1015.33 1015.46 1015.58 1015.66 1015.71 1015.76 1015.82 1015.92 1016.08 1016.29 1016.53 1016.76 1016.94 1017.05
1010.76 1010.82 1010.88 1010.92 1010.96 1010.97 1010.95 1010.90 1010.83 1010.74 1010.66 1010.59 1010.56 1010.56 1010.61 1010.71 1010.87 1011.10 1011.40 1011.76 1012.20 1012.69 1013.20 1013.71 1014.16 1014.54 1014.82 1014.99 1015.06 1015.06 1015.02 1014.98 1014.96 1014.98 1015.03 1015.11 1015.20 1015.28 1015.35 1015.42 1015.50 1015.61 1015.77 1015.99 1016.26 1016.54 1016.81 1017.01 1017.10
1011.12 1011.22 1011.32 1011.42 1011.50 1011.53 1011.50 1011.42 1011.28 1011.10 1010.90 1010.71 1010.54 1010.42 1010.35 1010.36 1010.45 1010.63 1010.90 1011.27 1011.73 1012.25 1012.82 1013.38 1013.91 1014.35 1014.70 1014.92 1015.04 1015.06 1015.02 1014.95 1014.87 1014.82 1014.80 1014.81 1014.83 1014.88 1014.94 1015.03 1015.16 1015.34 1015.57 1015.86 1016.19 1016.53 1016.83 1017.05 1017.15
1011.40 1011.56 1011.73 1011.89 1012.01 1012.06 1012.03 1011.91 1011.71 1011.44 1011.14 1010.84 1010.55 1010.31 1010.14 1010.06 1010.07 1010.20 1010.44 1010.80 1011.26 1011.80 1012.41 1013.03 1013.62 1014.14 1014.56 1014.85 1015.00 1015.04 1014.99 1014.88 1014.74 1014.60 1014.49 1014.41 1014.37 1014.39 1014.45 1014.57 1014.75 1014.99 1015.31 1015.67 1016.07 1016.46 1016.81 1017.05 1017.17
1011.61 1011.84 1012.09 1012.31 1012.47 1012.55 1012.51 1012.36 1012.10 1011.76 1011.37 1010.97 1010.58 1010.25 1010.00 1009.83 1009.78 1009.85 1010.05 1010.37 1010.82 1011.37 1012.00 1012.66 1013.32 1013.91 1014.39 1014.74 1014.94 1014.99 1014.92 1014.76 1014.54 1014.31 1014.10 1013.94 1013.84 1013.82 1013.88 1014.03 1014.27 1014.58 1014.97 1015.41 1015.87 1016.32 1016.72 1017.02 1017.18
1011.76 1012.07 1012.40 1012.69 1012.90 1012.99 1012.95 1012.77 1012.46 1012.05 1011.59 1011.11 1010.65 1010.25 1009.92 1009.70 1009.58 1009.60 1009.75 1010.03 1010.45 1010.99 1011.63 1012.32 1013.02 1013.66 1014.20 1014.59 1014.83 1014.89 1014.79 1014.58 1014.29 1013.97 1013.67 1013.43 1013.28 1013.23 1013.29 1013.47 1013.75 1014.12 1014.57 1015.08 1015.60 1016.10 1016.55 1016.91 1017.15
1011.88 1012.28 1012.68 1013.04 1013.29 1013.40 1013.35 1013.14 1012.79 1012.33 1011.80 1011.27 1010.76 1010.30 1009.93 1009.66 1009.51 1009.47 1009.57 1009.82 1010.20 1010.71 1011.33 1012.02 1012.74 1013.41 1013.98 1014.41 1014.66 1014.72 1014.61 1014.35 1013.99 1013.60 1013.23 1012.93 1012.73 1012.65 1012.72 1012.91 1013.23 1013.65 1014.14 1014.68 1015.24 1015.79 1016.29 1016.72 1017.04
1012.01 1012.49 1012.97 1013.38 1013.67 1013.79 1013.73 1013.49 1013.10 1012.59 1012.02 1011.45 1010.91 1010.43 1010.04 1009.75 1009.57 1009.50 1009.56 1009.76 1010.09 1010.56 1011.15 1011.81 1012.52 1013.19 1013.77 1014.21 1014.46 1014.52 1014.39 1014.09 1013.70 1013.25 1012.83 1012.49 1012.26 1012.17 1012.23 1012.44 1012.77 1013.20 1013.70 1014.25 1014.82 1015.39 1015.93 1016.41 1016.83
1012.17 1012.72 1013.26 1013.71 1014.03 1014.15 1014.08 1013.81 1013.38 1012.83 1012.24 1011.65 1011.10 1010.63 1010.25 1009.96 1009.78 1009.70 1009.74 1009.89 1010.18 1010.59 1011.12 1011.74 1012.40 1013.04 1013.61 1014.04 1014.29 1014.34 1014.19 1013.89 1013.47 1013.00 1012.56 1012.19 1011.95 1011.85 1011.91 1012.11 1012.43 1012.85 1013.33 1013.85 1014.40 1014.95 1015.49 1016.01 1016.50
1012.37 1012.97 1013.55 1014.03 1014.35 1014.47 1014.37 1014.07 1013.62 1013.05 1012.45 1011.87 1011.34 1010.90 1010.55 1010.30 1010.14 1010.08 1010.11 1010.23 1010.47 1010.83 1011.29 1011.84 1012.44 1013.03 1013.56 1013.96 1014.20 1014.25 1014.11 1013.80 1013.39 1012.93 1012.50 1012.14 1011.89 1011.79 1011.83 1012.01 1012.30 1012.67 1013.09 1013.55 1014.04 1014.53 1015.05 1015.57 1016.08
1012.59 1013.22 1013.82 1014.31 1014.62 1014.72 1014.60 1014.27 1013.79 1013.22 1012.63 1012.07 1011.59 1011.21 1010.93 1010.75 1010.64 1010.62 1010.66 1010.78 1010.99 1011.29 1011.68 1012.16 1012.68 1013.21 1013.68 1014.05 1014.28 1014.33 1014.20 1013.93 1013.55 1013.13 1012.72 1012.38 1012.15 1012.05 1012.07 1012.21 1012.44 1012.74 1013.08 1013.44 1013.83 1014.24 1014.69 1015.16 1015.67
1012.81 1013.45 1014.04 1014.51 1014.80 1014.86 1014.71 1014.37 1013.88 1013.32 1012.76 1012.25 1011.84 1011.55 1011.36 1011.27 1011.25 1011.29 1011.38 1011.51 1011.70 1011.96 1012.30 1012.70 1013.15 1013.61 1014.03 1014.37 1014.58 1014.65 1014.56 1014.33 1014.01 1013.64 1013.28 1012.98 1012.77 1012.66 1012.66 1012.76 1012.92 1013.12 1013.35 1013.60 1013.87 1014.17 1014.52 1014.91 1015.36
1013.00 1013.61 1014.17 1014.60 1014.85 1014.89 1014.71 1014.35 1013.86 1013.33 1012.82 1012.39 1012.08 1011.89 1011.82 1011.85 1011.94 1012.07 1012.22 1012.39 1012.59 1012.83 1013.12 1013.46 1013.85 1014.25 1014.63 1014.94 1015.15 1015.24 1015.19 1015.03 1014.77 1014.48 1014.18 1013.93 1013.74 1013.63 1013.61 1013.65 1013.73 1013.84 1013.97 1014.10 1014.24 1014.42 1014.65 1014.93 1015.28
1013.13 1013.70 1014.21 1014.59 1014.79 1014.78 1014.58 1014.21 1013.75 1013.26 1012.82 1012.49 1012.29 1012.23 1012.29 1012.45 1012.67 1012.91 1013.14 1013.37 1013.59 1013.83 1014.10 1014.40 1014.74 1015.09 1015.43 1015.73 1015.95 1016.07 1016.08 1015.98 1015.80 1015.58 1015.35 1015.14 1014.98 1014.88 1014.83 1014.82 1014.84 1014.86 1014.88 1014.91 1014.94 1015.00 1015.11 1015.28 1015.51
Thickness
5834 5840 5842 5836 5828 5817 5800 5803 5810 5807 5806 5812 5813 5809 5802 5794 5789 5778 5795 5803 5802 5799 5794 5788 5786 5785 5784 5784 5783 5782 5781 5780 5779 5778 5777 5776 5775 5774 5773 5771 5769 5768 5767 5765 5764 5763 5762 5760 5758
5843 5843 5838 5834 5821 5801 5795 5808 5807 5807 5811 5815 5812 5809 5802 5793 5797 5795 5798 5800 5801 5799 5795 5790 5784 5784 5783 5782 5782 5781 5780 5779 5777 5776 5775 5774 5773 5771 5770 5769 5767 5766 5765 5763 5762 5761 5760 5758 5756
5844 5843 5836 5831 5814 5802 5797 5809 5809 5812 5817 5815 5808 5807 5798 5790 5795 5797 5800 5802 5801 5799 5795 5787 5783 5782 5781 5780 5780 5779 5778 5777 5775 5774 5773 5772 5771 5770 5768 5767 5765 5764 5763 5762 5760 5759 5758 5756 5754
5842 5840 5837 5825 5807 5809 5811 5813 5815 5811 5813 5815 5810 5799 5797 5799 5801 5802 5802 5802 5801 5799 5795 5786 5782 5781 5780 5779 5778 5778 5776 5775 5774 5772 5771 5770 5769 5768 5766 5765 5763 5762 5761 5760 5758 5757 5755 5754 5753
5844 5836 5824 5813 5808 5812 5818 5820 5820 5814 5810 5811 5810 5795 5789 5798 5805 5804 5801 5801 5800 5798 5794 5787 5781 5779 5778 5777 5777 5776 5775 5773 5772 5770 5769 5768 5767 5766 5764 5763 5761 5760 5759 5758 5756 5755 5754 5752 5751
5836 5833 5817 5807 5805 5812 5818 5823 5822 5814 5810 5810 5807 5796 5787 5798 5800 5800 5801 5800 5800 5797 5793 5785 5780 5778 5777 5776 5775 5774 5773 5772 5770 5769 5767 5766 5765 5764 5762 5761 5759 5758 5757 5756 5754 5753 5752 5750 5749
5829 5825 5815 5812 5806 5808 5815 5824 5821 5815 5809 5810 5813 5797 5788 5793 5798 5800 5798 5798 5798 5795 5792 5787 5783 5778 5776 5774 5773 5772 5771 5769 5768 5767 5766 5764 5763 5762 5761 5759 5758 5756 5755 5754 5753 5752 5751 5749 5748
5835 5828 5815 5812 5807 5807 5819 5823 5823 5819 5811 5818 5817 5799 5789 5794 5799 5798 5796 5795 5794 5792 5791 5788 5785 5782 5779 5775 5771 5770 5769 5768 5767 5765 5764 5763 5762 5761 5760 5759 5756 5755 5754 5753 5752 5751 5750 5748 5747
5833 5822 5812 5813 5810 5812 5821 5819 5821 5826 5818 5815 5816 5813 5809 5802 5799 5794 5790 5789 5787 5787 5788 5787 5785 5782 5780 5778 5772 5770 5768 5767 5766 5765 5763 5764 5765 5764 5761 5758 5755 5754 5753 5751 5750 5750 5749 5748 5747
5828 5816 5815 5822 5823 5821 5820 5820 5820 5818 5811 5807 5807 5808 5807 5800 5795 5791 5788 5785 5784 5783 5784 5784 5784 5781 5780 5778 5774 5772 5772 5769 5768 5766 5765 5765 5764 5763 5761 5755 5754 5753 5752 5750 5750 5749 5749 5750 5750
5824 5817 5821 5824 5827 5826 5822 5821 5826 5818 5809 5812 5807 5803 5800 5797 5794 5792 5790 5789 5787 5785 5783 5782 5781 5779 5779 5777 5775 5773 5771 5769 5768 5765 5764 5763 5763 5762 5761 5758 5755 5754 5753 5753 5751 5752 5753 5752 5750
5818 5820 5822 5825 5828 5824 5822 5823 5821 5820 5820 5825 5820 5811 5802 5797 5794 5793 5791 5790 5789 5785 5783 5782 5779 5777 5776 5777 5775 5773 5772 5770 5768 5764 5763 5763 5762 5761 5761 5758 5758 5756 5755 5753 5753 5751 5751 5750 5750
5814 5817 5823 5827 5827 5827 5825 5822 5821 5820 5827 5827 5819 5809 5803 5800 5798 5796 5795 5791 5789 5785 5782 5781 5778 5776 5774 5772 5773 5773 5771 5770 5767 5764 5762 5761 5762 5760 5759 5758 5756 5757 5755 5753 5751 5750 5749 5748 5748
5815 5817 5820 5823 5825 5825 5821 5821 5820 5820 5826 5820 5813 5807 5805 5803 5800 5796 5793 5789 5788 5785 5783 5781 5777 5775 5772 5771 5770 5771 5770 5767 5767 5764 5762 5760 5761 5759 5757 5756 5754 5755 5753 5753 5750 5749 5747 5747 5747
5816 5811 5814 5819 5821 5823 5820 5810 5817 5824 5823 5815 5811 5808 5805 5804 5801 5798 5794 5791 5789 5787 5784 5780 5777 5775 5771 5770 5770 5770 5769 5767 5766 5764 5761 5759 5759 5757 5756 5755 5754 5754 5752 5750 5749 5748 5747 5746 5746
5808 5804 5800 5811 5818 5820 5813 5803 5818 5825 5820 5812 5811 5808 5804 5803 5802 5801 5797 5793 5791 5788 5784 5781 5779 5775 5771 5769 5768 5769 5769 5767 5765 5763 5761 5759 5757 5756 5754 5755 5754 5751 5751 5750 5749 5748 5747 5745 5744
5795 5794 5797 5802 5815 5816 5813 5809 5817 5823 5819 5812 5811 5808 5805 5803 5802 5802 5800 5796 5793 5789 5784 5780 5779 5775 5772 5769 5767 5767 5765 5764 5764 5762 5761 5758 5756 5755 5753 5753 5752 5750 5750 5749 5749 5748 5746 5743 5742
5788 5795 5795 5797 5808 5811 5808 5812 5816 5820 5818 5815 5813 5810 5807 5805 5804 5804 5802 5799 5794 5790 5785 5781 5778 5775 5772 5770 5766 5765 5764 5763 5762 5761 5759 5757 5756 5754 5753 5752 5750 5750 5749 5748 5746 5744 5743 5742 5741
5797 5794 5792 5798 5808 5805 5805 5808 5813 5817 5817 5815 5813 5811 5808 5808 5811 5808 5804 5800 5795 5790 5786 5782 5778 5775 5771 5769 5766 5763 5762 5762 5761 5760 5758 5756 5755 5754 5752 5752 5749 5748 5748 5746 5746 5744 5742 5742 5741
5788 5786 5788 5792 5802 5801 5802 5805 5814 5815 5815 5817 5815 5812 5812 5810 5809 5807 5804 5801 5796 5791 5787 5783 5779 5776 5773 5771 5768 5766 5765 5763 5762 5760 5758 5756 5755 5753 5753 5750 5749 5748 5747 5745 5744 5742 5741 5741 5741
5780 5784 5787 5787 5793 5800 5796 5795 5805 5813 5816 5818 5819 5818 5818 5814 5810 5807 5804 5801 5799 5794 5790 5787 5782 5778 5774 5772 5769 5766 5762 5761 5760 5758 5757 5756 5755 5753 5752 5751 5750 5748 5747 5745 5743 5742 5740 5738 5739
5771 5786 5787 5785 5782 5785 5789 5781 5800 5809 5809 5812 5816 5818 5818 5818 5816 5812 5808 5804 5801 5798 5795 5789 5784 5780 5776 5772 5769 5765 5761 5759 5760 5758 5758 5757 5755 5754 5752 5751 5749 5747 5747 5745 5744 5745 5742 5738 5737
5778 5786 5784 5783 5781 5781 5786 5780 5797 5807 5803 5811 5817 5819 5821 5821 5819 5815 5813 5809 5806 5802 5797 5792 5786 5781 5778 5774 5770 5766 5764 5763 5763 5760 5758 5756 5755 5754 5752 5751 5749 5747 5747 5745 5745 5743 5742 5740 5738
5778 5776 5774 5777 5779 5762 5779 5777 5784 5805 5807 5814 5820 5821 5821 5822 5821 5818 5816 5812 5807 5804 5799 5794 5787 5782 5779 5774 5771 5768 5765 5763 5761 5758 5757 5755 5755 5754 5753 5751 5749 5748 5747 5745 5744 5742 5741 5740 5739
5769 5760 5748 5747 5750 5761 5783 5775 5788 5810 5816 5817 5818 5820 5822 5823 5821 5816 5813 5809 5806 5802 5798 5794 5788 5782 5779 5776 5772 5769 5766 5763 5760 5759 5757 5756 5756 5755 5752 5752 5749 5748 5747 5745 5744 5742 5741 5740 5738
5764 5766 5755 5746 5751 5766 5770 5772 5796 5813 5816 5818 5819 5820 5821 5821 5819 5816 5814 5810 5806 5802 5798 5794 5788 5783 5780 5776 5773 5770 5768 5765 5764 5761 5760 5759 5758 5758 5755 5752 5750 5748 5747 5746 5744 5743 5741 5740 5738
5759 5763 5781 5769 5768 5763 5770 5780 5795 5808 5808 5811 5814 5814 5815 5817 5816 5815 5813 5810 5806 5801 5798 5794 5789 5784 5780 5777 5773 5770 5768 5766 5765 5762 5760 5760 5759 5758 5755 5753 5750 5749 5747 5746 5743 5743 5741 5740 5739
5773 5771 5763 5757 5745 5746 5760 5768 5782 5793 5799 5805 5808 5809 5811 5813 5814 5812 5811 5808 5806 5802 5798 5794 5790 5785 5781 5778 5774 5771 5767 5766 5764 5763 5760 5759 5758 5756 5754 5752 5750 5748 5746 5745 5743 5742 5741 5739 5739
5755 5758 5762 5764 5764 5753 5750 5767 5796 5797 5801 5802 5805 5808 5809 5810 5811 5810 5809 5808 5805 5803 5798 5793 5789 5784 5780 5777 5774 5770 5768 5766 5764 5762 5760 5758 5756 5754 5752 5750 5748 5747 5745 5744 5742 5742 5741 5739 5738
5763 5762 5761 5750 5748 5757 5761 5770 5798 5799 5803 5802 5802 5805 5807 5808 5809 5807 5805 5804 5801 5799 5795 5790 5787 5783 5780 5777 5773 5769 5767 5764 5762 5761 5759 5757 5755 5753 5752 5749 5747 5746 5745 5744 5742 5741 5741 5739 5738